Location: *
(46.4000°N, 12.6667°E)
Time: 13:02:19
(UTC+00:00)

COSMOS 2428 - Pass Details

Date: 09 April 2020
Orbit: 846 x 856 km, 70.9° (Epoch: 25 May)

Event Time Altitude Azimuth Distance (km) Brightness Sun altitude
Rises 22:56:19 0° 338° (NNW) 3,424 6.8 -35.5°
Reaches altitude 10° 22:59:07 10° 349° (N) 2,484 5.9 -35.5°
Enters shadow 23:03:39 29° 42° (NE) 1,499 4.2 -35.5°
